Regional Weather Roundup
Issued by NWS

Home | Current Version | Previous Version | Graphics & Text | Print | Product List | Glossary On
Versions: 1 2 3 4 5 6 7 8 9 10 11 12 13 14 15 16 17 18 19 20 21 22 23 24 25 26 27 28 29 30 31 32 33 34 35 36 37 38 39 40 41 42 43 44 45 46 47 48 49 50
489
ASUS45 KBOU 300607
RWRCO

WEATHER ROUNDUP FOR COLORADO
NATIONAL WEATHER SERVICE DENVER/BOULDER CO
1200 AM MDT THU MAR 30 2017

NOTE: "FAIR" INDICATES FEW OR NO CLOUDS BELOW 12000 FEET WITH NO
SIGNIFICANT WEATHER AND/OR OBSTRUCTIONS TO VISIBILITY.

COZ001>005-013-030-031-300700-
...NORTHWEST COLORADO...

CITY           SKY/WX    TMP DP  RH WIND       PRES   REMARKS
CRAIG          FAIR      31  26  82 SE5       30.05F WCI  26
HAYDEN         FAIR      34  23  64 CALM      30.05F
MEEKER         FAIR      34  29  82 NE6       30.07F WCI  29
MOUNT WERNER   NOT AVBL
STEAMBOAT SPGS FAIR      34  27  75 CALM      30.05F
WALDEN         NOT AVBL
$$

COZ006>008-011-300700-
...WEST CENTRAL VALLEYS...

CITY           SKY/WX    TMP DP  RH WIND       PRES   REMARKS
GRAND JUNCTION FAIR      42  30  62 NE5       30.02F
MONTROSE       FAIR      41  31  67 SE10      30.09S
EAGLE          FAIR      35  27  72 E6        30.10F WCI  30
RIFLE          FAIR      39  26  59 SE6       30.05F
DELTA          FAIR      42  31  62 CALM      30.06S
NUCLA          FAIR      41  25  52 E9        30.11F
$$

COZ017>023-064>068-300700-
...SOUTHWEST COLORADO...

CITY           SKY/WX    TMP DP  RH WIND       PRES   REMARKS
DURANGO        FAIR      42  16  34 W3        30.03F
CORTEZ         FAIR      36  26  67 E6        30.09R
PAGOSA SPRINGS FAIR      34  19  55 CALM      30.08S
TELLURIDE      NOT AVBL
WOLF CREEK PAS FAIR      25   7  46 W5        30.24S WCI  19
$$

COZ009-010-012-014-032>034-037-058>063-300700-
...CENTRAL COLORADO...

CITY           SKY/WX    TMP DP  RH WIND       PRES   REMARKS
ASPEN          FAIR      32  23  69 SW8       30.10S WCI  25
BUENA VISTA    FAIR      33  21  60 CALM      30.05F
COPPER MTN     MOCLDY    25  18  74 MISG      30.15S
BERTHOUD PASS  CLOUDY    16   5  62 NW26G35   30.09F HAZE    WCI  -3
COTTONWOOD PAS FAIR      37  16  41 W20G32    30.08F
GUNNISON       FAIR      33  23  66 N5        30.10F WCI  29
KREMMLING      FAIR      34  28  80 E5        30.08F WCI  30
LEADVILLE      FAIR      24  16  71 CALM      30.10F
MONARCH PASS   FAIR      23  18  80 SW16      30.25F WCI  10
SALIDA         FAIR      38  18  44 CALM      30.12S
SUNLIGHT       FAIR      27  19  74 W6        30.20F WCI  20
WILKERSON PASS MOCLDY    27  14  59 NW12G17   30.12F WCI  16
$$

COZ069>075-300700-
...SAN LUIS VALLEY/SANGRE DE CRISTO MOUNTAINS...

CITY           SKY/WX    TMP DP  RH WIND       PRES   REMARKS
ALAMOSA        FAIR      32  22  66 SE7       30.06R WCI  26
LA VETA PASS   NOT AVBL
SAGUACHE       FAIR      36  23  60 NW8       30.08F
$$

COZ035-036-038>040-300700-
...NORTHERN COLORADO FRONT RANGE...

CITY           SKY/WX    TMP DP  RH WIND       PRES   REMARKS
DENVER INTL AP FAIR      40  33  76 SW12      29.94F
DMNS CITY PARK   N/A     43  32  65 MISG      29.94F
AURORA         PTCLDY    37  34  87 S8        29.95F
FRONT RANGE AP FAIR      36  32  87 S7        29.96F
ERIE MUNI ARPT FAIR      38  33  84 CALM        N/A
BOULDER MUN AP FAIR      43  32  65 CALM      29.94F
CENTENNIAL     FAIR      36  31  82 S5        29.95F
BROOMFIELD     FAIR      43  32  65 CALM      29.95F
FORT COLLINS   FAIR      38  33  82 E8        29.95F
LONGMONT       FAIR      38  32  78 CALM      29.96F
$$

COZ041-046-047-076>085-087-088-300700-
...PIKES PEAK/PALMER DIVIDE AND SOUTHERN FOOTHILLS...

CITY           SKY/WX    TMP DP  RH WIND       PRES   REMARKS
COLO. SPRINGS  FAIR      37  30  75 E6        29.99F
A. F. ACADEMY  NOT AVBL
SCHRIEVER AFB  FAIR      33  31  90 SW5       29.99F WCI  29
ELLICOTT       FAIR     N/A N/A N/A W5        29.97F
FALCON         FAIR      34  31  89 W8        30.00F WCI  27
FORT CARSON    FAIR      40  31  71 SW7       29.97F
LIMON          FAIR      30  30 100 NW5       29.96F WCI  25
MONUMENT HILL  FAIR      32  28  86 SW8       30.00F WCI  25
TRINIDAD       FAIR      37  32  82 W18       29.98F
$$

COZ042>045-048>051-090-091-300700-
...NORTHEAST COLORADO...

CITY           SKY/WX    TMP DP  RH WIND       PRES   REMARKS
GREELEY ARPT   FAIR      37  34  89 E5        29.96F
AKRON          FAIR      34  32  92 W13       29.94S WCI  25
BURLINGTON     FAIR      33  32  96 W10       29.89F WCI  25
WRAY           FAIR      32  32 100 N6        29.92F WCI  26
STERLING       FAIR      32  32 100 W9        29.94S WCI  24
HOLYOKE        FAIR      36  34  93 NW6       29.92S
FORT MORGAN    FAIR      34  32  92 W6        29.97F WCI  29
$$

COZ086-089-092>099-300700-
...SOUTHEAST COLORADO...

CITY           SKY/WX    TMP DP  RH WIND       PRES   REMARKS
PUEBLO         FAIR      38  34  85 CALM      29.96F
LA JUNTA       FAIR      39  34  82 W9        29.95F
LAMAR          FAIR      34  32  92 W7        29.91F WCI  28
SPRINGFIELD      N/A     34  33  96 W10       29.92F WCI  26
$$




USA.gov is the U.S. government's official web portal to all federal, state and local government web resources and services.